Other Public Products
Issued by NWS Grand Forks, ND

Home | Current Version | Previous Version | Text Only | Print | Product List | Glossary On
Versions: 1 2 3 4 5 6 7 8 9 10 11 12 13 14 15 16 17 18 19 20 21 22 23 24 25 26 27 28 29 30 31 32 33 34 35 36 37 38 39 40 41 42 43 44 45 46 47 48 49 50
000
FPUS83 KFGF 110910
OPUFGF
PRAIRIE TO PINES WEATHER ROUNDUP
NATIONAL WEATHER SERVICE EASTERN NORTH DAKOTA/GRAND FORKS ND
400 AM CDT FRI JUL 11 2014

 **SATELLITE DATA USED TO AUGMENT SKY COVER AT AUTOMATED STATIONS**
 *****  WEATHER ACROSS EASTERN NORTH DAKOTA  *****

CITY           SKY/WX    TMP DP  RH WIND       PRES   REMARKS
GRAND FORKS    CLEAR     64  62  93 S5        29.76F
GRAND FORKS AF NOT AVBL
GRAND CITY NWS   N/A     64 N/A N/A S3          N/A
BUXTON         NOT AVBL
DEVILS LAKE    PTCLDY    64  59  82 SW3       29.79R
FARGO          CLEAR     70  67  90 SE7       29.78F
WAHPETON ARPT  SUNNY     68  64  88 SE6       29.79F
$$

 *****  WEATHER ACROSS CENTRAL AND WESTERN NORTH DAKOTA  *****

CITY           SKY/WX    TMP DP  RH WIND       PRES   REMARKS
JAMESTOWN      FOG       65  64  97 S5        29.80R VSB 1/4
BISMARCK       CLEAR     64  32  30 NE5       29.82F
MINOT          PTCLDY    66  64  93 NW9       29.84R
MINOT AFB      CLEAR     64  64 100 NW9       29.85R
GARRISON         N/A     64  64 100 CALM      29.83F
WILLISTON      CLEAR     61  58  90 NE7       29.89S
DICKINSON      CLEAR     62  60  93 NW8       29.87F FOG
HETTINGER      CLEAR     63  61  93 N5        29.90R
$$

 *****  OTHER OBSERVATIONS NORTHEAST NORTH DAKOTA  *****

CITY           SKY/WX    TMP DP  RH WIND       PRES   REMARKS
WALHALLA         N/A     63  63 100 CALM        N/A
LANGDON        FAIR      61  59  94 NW5       29.82S
CAVALIER       FAIR      64  63  94 N5        29.78F
GRAFTON        FAIR      63  63 100 NE3       29.78S
CANDO          FAIR      61  59  94 NW5       29.82R
FORT TOTTEN      N/A     64  63  96 CALM      29.95S
ROLLA          PTSUNNY   63  63 100 NW8       29.85S
RUGBY          FAIR      63  63 100 W5        29.81R FOG
 ***** THE ABOVE OBSERVATIONS ARE NON NWS ARE NOT QUALITY
        CONTROLLED AND MAY MIS-REPORT RAIN FOR SNOW...
$$

 *****  OTHER OBSERVATIONS SOUTHEAST NORTH DAKOTA *****

CITY           SKY/WX    TMP DP  RH WIND       PRES   REMARKS
COOPERSTOWN    NOT AVBL
VALLEY CITY    FOG       63  63 100 CALM      29.80F VSB 3/4
OAKES          NOT AVBL
GWINNER        SUNNY     72  72 100 SW6       29.80S
SHEYENNE NWR     N/A     65  65  99 CALM      29.95
BUFFALO        NOT AVBL
WYNDMERE       NOT AVBL
 ***** THE ABOVE OBSERVATIONS ARE NON NWS ARE NOT QUALITY
       CONTROLLED AND MAY MIS-REPORT RAIN FOR SNOW...
$$

  *****  WEATHER ACROSS NORTHERN MINNESOTA  *****

CITY           SKY/WX    TMP DP  RH WIND       PRES   REMARKS
FLAG ISLAND    PTCLDY    68  64  88 S7        29.80F
WARROAD        PTCLDY    64  61  88 S7        29.82F
ROSEAU         CLEAR     64  59  82 S6        29.81S
HALLOCK        NOT AVBL
THF RVR FALLS    N/A    N/A N/A N/A MISG        N/A
HALSTAD          N/A     66  64  93 S5          N/A
FOSSTON        MOCLDY    66  64  94 SE6       29.83S
BAUDETTE       CLOUDY    65  62  90 SE5       29.85F
WASKISH        NOT AVBL
CROOKSTON      CLEAR     66  64  94 S5        29.79F
$$
  *****  WEATHER ACROSS CENTRAL AND WEST MINNESOTA  *****

CITY           SKY/WX    TMP DP  RH WIND       PRES   REMARKS
BEMIDJI        CLOUDY    66  65  96 SE7       29.86S
PARK RAPIDS    LGT RAIN  67  66  97 S9        29.87R
WADENA         CLOUDY    64  63  94 SE8       29.87
DETROIT LAKES  MOCLDY    68  66  94 SE6       29.85F
MOORHEAD       NOT AVBL
FERGUS FALLS   MOCLDY    72  66  83 SE5       29.82S
ELBOW LAKE     CLOUDY    72  66  83 S15       29.82
MORRIS MN      PTCLDY    72  66  83 S12       29.82R
STAPLES        TSTM      64  64 100 SE9G17    29.90R
WHEATON        MOCLDY    72  64  78 S7        29.82R
$$
  *****  WEATHER ELSEWHERE ACROSS MINNESOTA  *****

CITY           SKY/WX    TMP DP  RH WIND       PRES   REMARKS
DULUTH         LGT RAIN  63  59  87 S8        29.97F
INTRNTL FALLS  PTCLDY    63  61  93 SE6       29.86F
ELY            LGT RAIN  64  61  88 S7        29.95S
CLOQUET        RAIN      59  57  94 S5        29.97S
BRAINERD       RAIN      70  64  81 S10       29.91S
HIBBING        CLOUDY    65  62  90 SE7       29.93F
ALEXANDRIA     LGT RAIN  72  65  78 S20G29    29.85F
SAINT CLOUD    CLOUDY    73  59  61 S22G30    29.88F
MINNEAPOLIS    CLOUDY    73  59  61 S14G23    29.97F
$$

  *****  WEATHER ACROSS SOUTH DAKOTA  *****

CITY           SKY/WX    TMP DP  RH WIND       PRES   REMARKS
SIOUX FALLS    LGT RAIN  70  67  90 S18G25    29.91F
BROOKINGS      NOT AVBL
WATERTOWN      PTCLDY    70  66  87 S13       29.86S
HURON          PTCLDY    73  66  78 S14G23    29.83R
SISSETON         N/A     75  68  78 SW16G24   29.79R
ABERDEEN       CLEAR     69  67  93 S9        29.81R
MITCHELL       CLOUDY    72  68  87 S18G30    29.85F
PIERRE         CLEAR     68  67  96 CALM      29.82R
MOBRIDGE       CLEAR     65  64  97 CALM      29.81R
RAPID CITY     MOCLDY    67  62  84 CALM      29.92S
$$

  *****  SOME WEATHER IN NEARBY STATES *****

CITY           SKY/WX    TMP DP  RH WIND       PRES   REMARKS
GLASGOW MT     MOCLDY    66  58  75 E10G22    29.94R
GREAT FALLS MT PTCLDY    63  56  78 N14       30.04R
CHEYENNE WY    MOCLDY    62  56  80 W5        30.15S
SCOTTSBLUFF NE CLOUDY    66  63  90 NW3       30.02R
OMAHA NE       MOCLDY    72  64  76 S12       29.99S
DES MOINES IA  CLOUDY    68  59  73 S10       30.06S
DAVENPORT IA   PTCLDY    63  56  78 S7        30.14F
CHICAGO IL     MOCLDY    63  52  67 SE3       30.18S
EAU CLAIRE WI  PTCLDY    68  60  75 S9        30.04S
LA CROSSE WI   MOCLDY    72  59  63 S13       30.08S
$$

  *****  SOME NATIONAL WEATHER *****

CITY           SKY/WX    TMP DP  RH WIND       PRES   REMARKS
LA GUARDIA NY  CLOUDY    71  64  78 NE6       30.13S
RALEIGH NC     MOCLDY    70  68  93 CALM      30.12S
ATLANTA GA     MOCLDY    73  69  87 CALM      30.10S
NEW ORLEANS LA PTCLDY    77  74  90 CALM      30.08F
OKLAHOMA CITY  PTCLDY    71  65  81 S7        30.02S
ALBUQUERQUE NM MOCLDY    74  54  49 SE3       30.15S
SALT LAKE CITY CLOUDY    70  57  63 S14       30.03F
LOS ANGELES CA CLOUDY    66  60  81 SW9       29.96F
BOISE ID       PTCLDY    74  49  41 SE7       29.85F
SEATTLE WA     CLEAR     65  52  62 N7        29.93S
$$

*** WEATHER ACROSS MANITOBA...SASKATCHEWAN AND ONTARIO ***
                ***ONTARIO***

CITY           SKY/WX    TMP DP  RH WIND       PRES   REMARKS
GERALDTON      PTCLDY    54  48  82 S5        30.00F
THUNDER BAY    PTCLDY    52  50  93 E6        29.99F
SIOUX LOOKOUT  MOCLDY    61  54  77 S6        29.86F
TORONTO        PTCLDY    57  50  77 N3        30.22S
BIG TROUT LK   CLOUDY    61  54  77 S7        29.73F
PICKLE LAKE    NOT AVBL
DRYDEN         MOCLDY    64  57  77 S8        29.85F
KENORA         MOCLDY    66  63  88 S8        29.83F
$$
                *** MANITOBA***

CITY           SKY/WX    TMP DP  RH WIND       PRES   REMARKS
BRANDON        CLEAR     63  63 100 W10       29.82S
DAUPHIN        CLEAR     61  54  77 SW8       29.78S
ISLAND LAKE    CLOUDY    68  63  83 SW7       29.62
PILOT MOUND      N/A    N/A N/A N/A SW5         N/A
THE PAS        PTCLDY    61  52  72 W12       29.63F
THOMPSON       NOT AVBL
WINNIPEG       PTCLDY    68  63  83 SW13      29.76R
LYNN LAKE      CLEAR     54  52  94 SW7       29.46F
CHURCHILL      CLOUDY    50  48  93 SE15G22   29.46F
GILLAM         PTCLDY    61  61 100 SW7       29.52S
$$
                ***SASKATCHEWAN***

CITY           SKY/WX    TMP DP  RH WIND       PRES   REMARKS
ESTEVAN        CLEAR     57  55  94 NW7       29.91R
KINDERSLEY     PTCLDY    54  48  82 W13G20    30.04S
LLOYDMINSTER   CLEAR     52  48  87 NW14G23   29.99R
PRINCE ALBERT  PTCLDY    55  52  88 W13       29.82R
REGINA         PTCLDY    57  54  88 NW13      29.94R



USA.gov is the U.S. government's official web portal to all federal, state and local government web resources and services.